Weather History for Billings, MT

Change the Weather History Date:

Friday, November 30, 2012

  Actual Average Record
Temperature  
Mean Temperature 48 °F 30 °F  
Max Temperature 55 °F 38 °F 65 °F (1999)
Min Temperature 40 °F 21 °F -14 °F (1985)
Degree Days  
Heating Degree Days 17 35  
Month to date heating degree days 737 876  
Since 1 July heating degree days 1382 1628  
Cooling Degree Days 0 0  
Month to date cooling degree days 0 0  
Year to date cooling degree days 958 636  
Moisture  
Dew Point 29 °F    
Average Humidity 49    
Maximum Humidity 56    
Minimum Humidity 41    
Precipitation  
Precipitation 0.00 in 0.02 in 0.22 in (1980)
Month to date precipitation 0.64 0.63  
Year to date precipitation 6.86 13.16  
Snow  
Snow 0.00 in 0.30 in 3.10 in (2000)
Month to date snowfall 7.5 6.5  
Since 1 July snowfall 11.6 11.7  
Since 1 September snowfall 11.6 11.7  
Snow Depth 0.00 in    
Sea Level Pressure  
Sea Level Pressure 29.70 in    
Wind  
Wind Speed 9 mph (SW)    
Max Wind Speed 17 mph    
Max Gust Speed 21 mph    
Visibility 10 miles    
Events      
T = Trace of Precipitation, MM = Missing Value Source: NWS Daily Summary

Daily Weather History Graph

Daily Weather History Graph

Search for Another Location

Airport:

Trip Planner

Search our weather history database for the weather conditions in past years. The results will help you decide how hot, cold, wet, or windy it might be!

Date:

Astronomy

Nov. 30, 2012 Rise Set
Actual Time 7:34 AM MST 4:31 PM MST
Civil Twilight 7:00 AM MST 5:05 PM MST
Nautical Twilight 6:23 AM MST 5:42 PM MST
Astronomical Twilight 5:47 AM MST 6:18 PM MST
Moon 6:29 PM MST (11/30) 9:08 AM MST (11/30)
Length of Visible Light 10h 04m
Length of Day
8h 57m
Waning Gibbous, 96% of the Moon is Illuminated
Nov 30
Waning Gibbous
Dec 6
Last Quarter
Dec 13
New
Dec 19
First Quarter
Dec 28
Full

Hourly Weather History & Observations

Time (MST) Temp. Windchill Dew Point Humidity Pressure Visibility Wind Dir Wind Speed Gust Speed Precip Events Conditions
12:53 AM 44.1 °F 38.6 °F 26.1 °F 49% 29.81 in 10.0 mi SW 10.4 mph - N/A   Clear
1:53 AM 45.0 °F 38.5 °F 26.1 °F 48% 29.78 in 10.0 mi WSW 13.8 mph - N/A   Clear
2:53 AM 46.9 °F - 26.1 °F 44% 29.78 in 10.0 mi West 12.7 mph - N/A   Clear
3:53 AM 44.1 °F 40.1 °F 26.1 °F 49% 29.78 in 10.0 mi SW 6.9 mph - N/A   Clear
4:53 AM 41.0 °F 36.4 °F 27.0 °F 57% 29.77 in 10.0 mi South 6.9 mph - N/A   Clear
5:53 AM 43.0 °F 38.2 °F 26.1 °F 51% 29.77 in 10.0 mi SW 8.1 mph - N/A   Clear
6:53 AM 44.1 °F 39.5 °F 25.0 °F 47% 29.75 in 10.0 mi SW 8.1 mph - N/A   Scattered Clouds
7:53 AM 44.1 °F 39.0 °F 25.0 °F 47% 29.77 in 10.0 mi WSW 9.2 mph - N/A   Scattered Clouds
8:53 AM 43.0 °F 36.8 °F 26.1 °F 51% 29.75 in 10.0 mi WSW 11.5 mph - N/A   Scattered Clouds
9:53 AM 48.0 °F - 26.1 °F 42% 29.72 in 10.0 mi SW 10.4 mph - N/A   Mostly Cloudy
10:53 AM 45.0 °F 41.2 °F 28.0 °F 52% 29.70 in 10.0 mi South 6.9 mph - N/A   Mostly Cloudy
11:53 AM 46.0 °F 43.1 °F 28.9 °F 51% 29.65 in 10.0 mi South 5.8 mph - N/A   Mostly Cloudy
12:53 PM 52.0 °F - 28.9 °F 41% 29.61 in 10.0 mi SW 10.4 mph - N/A   Mostly Cloudy
1:53 PM 50.0 °F - 32.0 °F 50% 29.59 in 10.0 mi Calm Calm - N/A   Mostly Cloudy
2:53 PM 54.0 °F - 30.0 °F 40% 29.58 in 10.0 mi WSW 13.8 mph - N/A   Mostly Cloudy
3:53 PM 53.1 °F - 30.9 °F 43% 29.62 in 10.0 mi WSW 11.5 mph - N/A   Overcast
4:53 PM 52.0 °F - 30.9 °F 45% 29.65 in 10.0 mi WSW 10.4 mph - N/A   Mostly Cloudy
5:53 PM 51.1 °F - 30.9 °F 46% 29.62 in 10.0 mi WSW 10.4 mph - N/A   Mostly Cloudy
6:53 PM 50.0 °F - 30.9 °F 48% 29.64 in 10.0 mi WSW 13.8 mph - N/A   Scattered Clouds
7:53 PM 48.9 °F - 32.0 °F 52% 29.66 in 10.0 mi West 11.5 mph - N/A   Clear
8:53 PM 50.0 °F - 32.0 °F 50% 29.68 in 10.0 mi WSW 9.2 mph - N/A   Clear
9:53 PM 48.0 °F - 33.1 °F 56% 29.69 in 10.0 mi West 11.5 mph - N/A   Clear
10:53 PM 48.0 °F - 33.1 °F 56% 29.69 in 10.0 mi SSW 6.9 mph - N/A   Clear
11:53 PM 46.9 °F - 32.0 °F 56% 29.69 in 10.0 mi SW 4.6 mph - N/A   Partly Cloudy